1 29712U 07001D 08052.74280878 .00000518 00000-0 75158-4 0 2063
2 29712 097.8904 113.0555 0015115 042.9505 317.2875 14.80029831 60249
AO-16
1 20439U 90005D 08052.64579672 .00000009 00000-0 18655-4 0 2578
2 20439 098.2195 038.7298 0011085 158.6827 201.4798 14.31784745944241
LO-19
1 20442U 90005G 08051.66439206 -.00000049 00000-0 -30701-5 0 01821
2 20442 098.1937 046.6683 0012097 160.1837 199.9824 14.32023473944254
AO-27
1 22825U 93061C 08051.86794556 -.00000025 00000-0 66397-5 0 9031
2 22825 098.3682 016.3799 0007546 245.9919 114.0485 14.29230872751018
IO-26
1 22826U 93061D 08051.80235427 -.00000001 00000-0 15810-4 0 06060
2 22826 098.3612 017.2814 0008076 242.9801 117.0551 14.29478612751097
PO-28
1 22829U 93061G 08051.84639924 .00000040 00000-0 31682-4 0 08808
2 22829 098.3503 018.4486 0009195 212.6456 147.4162 14.30181059751352
GO-32
1 25397U 98043D 08052.75215706 -.00000123 00000-0 -36236-4 0 5312
2 25397 098.3806 093.5817 0001122 171.6046 188.5141 14.23138211499653
MO-46
1 26548U 00057D 08052.66001480 .00000022 00000-0 20632-4 0 292
2 26548 064.5576 130.8375 0016166 339.8298 020.2166 14.83228711400535
NO-44
1 26931U 01043C 08052.72494511 -.00000224 00000-0 -55041-4 0 8119
2 26931 067.0504 224.6742 0004784 270.4756 089.5774 14.29511562333764
SO-50
1 27607U 02058C 08052.44038853 .00000124 00000-0 41110-4 0 5340
2 27607 064.5590 048.1859 0080589 302.7717 056.5628 14.71329203277791
CO-55
1 27844U 03031E 08052.72793794 .00000047 00000-0 42077-4 0 2410
2 27844 098.7194 062.5998 0010871 091.8709 268.3699 14.20561365240906
CO-57
1 27848U 03031J 08051.58336150 .00000009 00000-0 24536-4 0 1941
2 27848 098.7192 060.5918 0010551 097.5354 262.7012 14.20372948240715
AO-51
1 28375U 04025K 08052.64069054 .00000005 00000-0 14133-4 0 368
2 28375 098.0840 083.6975 0084004 145.6697 214.9966 14.40597254191625
CO-56
1 28941U 06005C 08051.93488420 .00027763 25151-5 23239-3 0 08712
2 28941 098.1048 147.2675 0188798 105.4568 256.7598 15.50644325111839
NO-61
1 29664U 06055F 07359.16654419 .14620719 12705-4 12723-3 0 7381
2 29664 051.6179 150.0690 0003189 248.8461 111.8136 16.51627846 58777
CP4
1 31122U 07012F 08051.85057192 .00000549 00000-0 13192-3 0 2675
2 31122 098.0563 121.7330 0084736 334.0503 025.6412 14.55088963 45014
CP3
1 31128U 07012M 08052.66313517 -.00000048 00000-0 00000 0 0 2638
2 31128 098.0543 120.9616 0102163 335.7281 023.9149 14.51915229 45021
LIBERT
1 31129U 07012N 08052.78216199 .00000337 00000-0 89029-4 0 7672
2 31129 098.0542 121.1064 0102435 335.3076 024.3203 14.52005060 45021
NOAA-10
1 16969U 86073A 08051.66816396 .00000020 00000-0 26174-4 0 00159
2 16969 098.7324 073.8182 0012556 160.2634 199.9045 14.27350928114673
NOAA-11
1 19531U 88089A 08051.84740094 -.00000053 00000-0 -49175-5 0 00499
2 19531 098.7987 142.8138 0012178 045.5405 314.6748 14.14865768001316
NOAA-12
1 21263U 91032A 08051.84564103 -.00000052 00000-0 -32438-5 0 05567
2 21263 098.7652 053.8150 0013422 105.2353 255.0290 14.25516938871672
MET-3/5
1 21655U 91056A 08051.89645907 .00000051 00000-0 10000-3 0 04627
2 21655 082.5559 187.2261 0012437 309.8299 050.1728 13.17012589794144
MET-2/21
1 22782U 93055A 08051.77055047 .00000041 00000-0 23559-4 0 00705
2 22782 082.5461 204.6993 0021098 258.9851 100.8942 13.83625860730893
OKEAN-4
1 23317U 94066A 08051.69053829 .00000206 00000-0 22465-4 0 05129
2 23317 082.5349 064.7007 0023051 150.1323 210.1208 14.82579706720876
NOAA-14
1 23455U 94089A 08051.70960858 -.00000316 00000-0 -14347-3 0 00306
2 23455 098.9589 123.8353 0010357 115.8036 244.4209 14.13733491677757
SICH-1
1 23657U 95046A 08051.69994121 .00000039 00000-0 18931-5 0 03119
2 23657 082.5262 205.6390 0024874 142.9801 217.3104 14.81552468672822
NOAA-15
1 25338U 98030A 08051.79193915 .00000108 00000-0 64691-4 0 03611
2 25338 098.5485 046.6705 0011138 029.4241 330.7534 14.24687311508089
RESURS
1 25394U 98043A 08051.70937345 -.00000036 00000-0 25692-5 0 08706
2 25394 098.4035 100.9305 0001457 147.0972 213.0299 14.24153181499726
FENGYUN1
1 25730U 99025A 08051.92228418 .00000671 00000-0 42118-3 0 03641
2 25730 098.7159 031.7085 0021615 139.4527 220.8259 14.07695939452460
OKEAN-0
1 25860U 99039A 08051.57087997 .00000057 00000-0 15971-4 0 02955
2 25860 097.7437 047.3648 0000816 045.4747 314.6526 14.73503389462077
NOAA-16
1 26536U 00055A 08051.90157565 -.00000186 00000-0 -75608-4 0 08170
2 26536 099.1477 038.5565 0010383 190.3113 169.7839 14.12468610382218
NOAA-17
1 27453U 02032A 08051.77789862 .00000178 00000-0 96216-4 0 08157
2 27453 098.5496 119.7410 0012800 091.3447 268.9194 14.23951075294096
NOAA-18
1 28654U 05018A 08051.77861433 -.00000152 00000-0 -59917-4 0 03261
2 28654 098.8567 354.2202 0013514 288.1303 071.8398 14.11136990141914
HUBBLE
1 20580U 90037B 08051.93657217 .00000345 00000-0 13868-4 0 00788
2 20580 028.4684 007.9414 0003994 215.8170 144.2149 15.00339276777353
UARS
1 21701U 91063B 08052.91246653 .00004387 00000-0 73230-4 0 2973
2 21701 056.9775 308.3570 0081878 318.5306 040.9556 15.50657589904458
PO-34
1 25520U 98064B 08052.89623248 .00000518 00000-0 15729-4 0 9361
2 25520 028.4592 237.3082 0005652 099.1972 260.9256 15.17136363515485
ISS
1 25544U 98067A 08053.05680841 .00010540 00000-0 66208-4 0 9679
2 25544 051.6397 255.0029 0007854 066.6260 072.0350 15.77394032530204
OO-38
1 26063U 00004C 08052.71024202 -.00000029 00000-0 10280-4 0 1410
2 26063 100.2075 106.2257 0036966 177.0920 183.0482 14.35827714422852
UWE-1
1 28892U 05043C 08052.68286486 .00000090 00000-0 28593-4 0 9815
2 28892 098.1104 309.0269 0018374 055.6092 304.6832 14.59594604123608
CO-58
1 28895U 05043F 08052.65406235 .00000144 00000-0 39879-4 0 9539
2 28895 098.1155 309.3089 0018970 055.8021 304.4994 14.59636881123483
NCUBE2
1 28897U 05043H 08051.67250170 .00000128 00000-0 36339-4 0 04857
2 28897 098.1101 308.2865 0018170 059.5259 300.7767 14.59804939115627
FCAL
1 29667U 06055J 08052.86677242 .00052508 12641-4 91967-4 0 7726
2 29667 051.6296 213.9097 0008046 250.9607 109.0532 16.02425972 67820
FALCON
1 30776U 07006E 08051.66148863 .00000368 00000-0 29977-4 0 02709
2 30776 035.4323 146.2077 0001068 025.2684 334.8084 15.02884480052450
MAST
1 31126U 07012K 08051.72411634 -.00000052 00000-0 -85044-6 0 2602
2 31126 098.0529 120.7846 0094391 336.6094 023.0800 14.53399784 44951
CAPE1
1 31130U 07012P 08051.76335747 .00000037 00000-0 19640-4 0 2407
2 31130 098.0526 120.1000 0102492 338.5779 021.1144 14.51932345 44686
/EX
1
0
SB KEPS @ AMSAT $ORB08052.O
Orbital Elements 08052.OSCAR
HR AMSAT ORBITAL ELEMENTS FOR OSCAR SATELLITES
FROM WA5QGD FORT WORTH,TX February 21, 2008
Send Subscribe/unsubscribe to KEPS at
http://www.amsat.org/mailman/listinfo/keps
BID: ORB08052.O
TO ALL RADIO AMATEURS BT
Satellite: AO-07
Catalog number: 07530
Epoch time: 08052.77619259
Element set: 108
Inclination: 101.4829 deg
RA of node: 088.1076 deg
Eccentricity: 0.0012155
Arg of perigee: 129.2580 deg
Mean anomaly: 230.9568 deg
Mean motion: 12.53573435 rev/day
Decay rate: -2.7e-07 rev/day^2
Epoch rev: 52239
Checksum: 301
Satellite: AO-10
Catalog number: 14129
Epoch time: 08051.72407264
Element set: 472
Inclination: 025.9259 deg
RA of node: 229.3821 deg
Eccentricity: 0.6027879
Arg of perigee: 100.4295 deg
Mean anomaly: 328.7203 deg
Mean motion: 02.05867954 rev/day
Decay rate: 1.20e-06 rev/day^2
Epoch rev: 18568
Checksum: 308
Satellite: UO-11
Catalog number: 14781
Epoch time: 08051.78838550
Element set: 0602
Inclination: 098.1690 deg
RA of node: 083.9846 deg
Eccentricity: 0.0010178
Arg of perigee: 091.8246 deg
Mean anomaly: 268.4145 deg
Mean motion: 14.79618913 rev/day
Decay rate: 1.79e-06 rev/day^2
Epoch rev: 28649
Checksum: 342
Satellite: RS-15
Catalog number: 23439
Epoch time: 08051.94062879
Element set: 0157
Inclination: 064.8226 deg
RA of node: 324.6477 deg
Eccentricity: 0.0150468
Arg of perigee: 145.0216 deg
Mean anomaly: 216.0703 deg
Mean motion: 11.27551493 rev/day
Decay rate: -3.9e-07 rev/day^2
Epoch rev: 54174
Checksum: 305
Satellite: FO-29
Catalog number: 24278
Epoch time: 08052.86877160
Element set: 707
Inclination: 098.5843 deg
RA of node: 344.3834 deg
Eccentricity: 0.0351002
Arg of perigee: 156.5340 deg
Mean anomaly: 205.2261 deg
Mean motion: 13.52935292 rev/day
Decay rate: -2.6e-07 rev/day^2
Epoch rev: 56866
Checksum: 317
Satellite: SO-33
Catalog number: 25509
Epoch time: 08051.90073745
Element set: 0137
Inclination: 031.4284 deg
RA of node: 259.5154 deg
Eccentricity: 0.0354582
Arg of perigee: 081.8324 deg
Mean anomaly: 282.2349 deg
Mean motion: 14.28196598 rev/day
Decay rate: 1.24e-06 rev/day^2
Epoch rev: 48683
Checksum: 322
Satellite: AO-40
Catalog number: 26609
Epoch time: 08050.17454471
Element set: 0012
Inclination: 007.4126 deg
RA of node: 096.9548 deg
Eccentricity: 0.7924077
Arg of perigee: 053.1927 deg
Mean anomaly: 355.7323 deg
Mean motion: 01.25583023 rev/day
Decay rate: -4.51e-06 rev/day^2
Epoch rev: 03354
Checksum: 293
Satellite: VO-52
Catalog number: 28650
Epoch time: 08052.62490577
Element set: 862
Inclination: 097.8027 deg
RA of node: 122.3727 deg
Eccentricity: 0.0027673
Arg of perigee: 158.6228 deg
Mean anomaly: 201.6185 deg
Mean motion: 14.81423980 rev/day
Decay rate: 3.33e-06 rev/day^2
Epoch rev: 15134
Checksum: 309
Satellite: PO-63
Catalog number: 29712
Epoch time: 08052.74280878
Element set: 206
Inclination: 097.8904 deg
RA of node: 113.0555 deg
Eccentricity: 0.0015115
Arg of perigee: 042.9505 deg
Mean anomaly: 317.2875 deg
Mean motion: 14.80029831 rev/day
Decay rate: 5.18e-06 rev/day^2
Epoch rev: 6024
Checksum: 297
/EX
SB KEPS @ AMSAT $ORB08052.D
Orbital Elements 08052.MICROS
HR AMSAT ORBITAL ELEMENTS FOR THE MICROSATS
FROM WA5QGD FORT WORTH,TX February 21, 2008
Send Subscribe/unsubscribe to KEPS at
http://www.amsat.org/mailman/listinfo/keps
BID: ORB08052.D
TO ALL RADIO AMATEURS BT
Satellite: AO-16
Catalog number: 20439
Epoch time: 08052.64579672
Element set: 257
Inclination: 098.2195 deg
RA of node: 038.7298 deg
Eccentricity: 0.0011085
Arg of perigee: 158.6827 deg
Mean anomaly: 201.4798 deg
Mean motion: 14.31784745 rev/day
Decay rate: 9.0e-08 rev/day^2
Epoch rev: 94424
